Location: Earls Croome
(52.0667°N, 2.2000°W)
Time: 17:53:41
(UTC+00:00)

Meteor 2-20 - Pass Details

Date: 17 November 2019
Orbit: 939 x 958 km, 82.5° (Epoch: 15 December)

Event Time Altitude Azimuth Distance (km) Brightness Sun altitude
Rises 04:47:20 0° 347° (NNW) 3,653 7.4 -24.9°
Reaches altitude 10° 04:49:51 10° 346° (NNW) 2,703 6.7 -24.5°
Maximum altitude 04:56:00 71° 264° (W) 1,013 4.3 -23.6°
Drops below altitude 10° 05:02:06 10° 181° (S) 2,680 6.8 -22.7°
Sets 05:04:36 0° 180° (S) 3,620 7.5 -22.3°
